SCP
0 0 0 0 0 0 0 0 0 0 0 0 0 -0 0 -0 0 0 0 0 1 1 1 1 1 1 2 2 2 2 1 1 1 1 1 0 0 0 1 0 0 0 -0 -0 -0 -0 -0 -0 -0
0 0 0 0 0 0 0 0 0 0 0 0 0 0 0 0 0 0 0 1 1 1 1 1 1 1 1 2 2 2 0 -0 -0 1 1 1 0 1 0 0 0 0 -0 -0 -0 -0 -0 -0 -0
0 0 0 0 0 0 0 0 0 0 0 0 0 0 0 0 0 1 1 1 1 1 0 0 1 1 1 1 2 1 -0 -0 0 -0 1 0 1 1 0 0 0 0 0 -0 -0 -0 -0 -0 -0
0 0 0 0 0 0 0 0 0 0 0 0 0 0 0 0 0 1 1 1 1 0 0 1 0 1 0 0 1 1 0 -0 -0 0 0 0 0 1 0 0 0 0 0 -0 -0 -0 -0 -0 -0
0 0 0 0 0 0 0 0 0 0 0 0 0 0 0 0 0 1 0 0 0 0 1 0 0 -0 -0 -0 -0 -0 0 0 -0 0 0 0 0 1 0 0 0 0 0 0 -0 -0 -0 -0 -0
0 0 0 0 0 0 0 0 0 0 0 0 0 0 0 0 0 0 0 0 0 0 0 0 0 0 0 -0 -0 -0 0 -0 -0 0 0 0 0 0 0 0 0 0 0 0 -0 -0 -0 0 -0
0 0 0 0 0 0 0 0 0 0 0 0 0 0 0 0 0 0 0 1 0 0 0 0 0 0 0 0 0 0 0 0 0 0 -0 0 1 1 0 0 0 0 0 0 -0 -0 -0 -0 -0
0 0 0 0 0 0 0 0 0 0 0 0 0 0 0 1 0 0 0 1 1 0 0 0 0 0 0 1 0 0 0 0 0 -0 -0 -0 0 0 0 0 0 0 0 0 0 -0 -0 -0 -0
0 0 0 0 0 0 0 0 0 0 0 0 0 0 0 0 0 0 0 1 0 0 0 0 0 0 1 1 0 0 0 0 0 0 0 0 0 0 0 0 0 0 0 0 0 -0 0 0 0
0 0 0 0 0 0 0 0 0 0 0 0 0 0 0 0 0 0 0 0 0 0 0 0 0 -0 0 1 0 0 0 0 0 0 0 0 0 0 0 0 0 0 0 0 0 0 0 0 0
0 0 0 0 0 0 0 0 0 0 0 0 0 0 0 0 0 0 0 0 0 0 0 0 0 0 0 0 0 0 0 0 0 0 0 0 0 0 0 0 0 0 0 0 0 0 0 0 0
0 0 0 0 0 0 0 0 0 0 0 0 0 0 0 0 0 0 0 0 0 0 0 0 0 0 -0 0 0 0 0 0 0 0 0 0 0 0 0 0 0 0 0 0 0 0 0 0 0
0 0 0 0 0 0 0 0 -0 0 0 0 0 0 0 0 0 0 0 0 0 0 0 0 0 0 -0 -0 -0 -0 0 0 0 0 0 0 0 0 0 0 0 0 0 0 0 0 0 0 0
0 0 0 0 0 0 0 0 0 0 0 0 0 0 0 0 0 0 0 0 0 0 0 0 0 0 0 -0 0 0 0 0 0 0 0 0 0 0 0 0 0 0 0 0 0 0 0 0 0
0 0 0 0 0 0 0 0 -0 -0 0 0 0 0 0 0 0 0 0 -0 -0 0 0 0 -0 0 -0 -0 0 0 0 0 0 0 0 0 0 0 0 0 0 0 0 0 0 0 0 0 0
0 0 0 0 0 0 0 -0 0 0 0 0 0 0 0 0 0 0 0 0 -0 -0 0 0 0 -0 0 0 0 0 0 0 0 0 0 0 0 0 0 0 0 0 0 0 0 0 0 0 0
0 0 0 0 0 0 0 -0 0 0 0 0 0 0 0 0 0 0 0 0 0 0 -0 0 0 -0 -0 0 0 0 0 0 0 0 0 0 0 0 0 0 0 0 0 0 0 0 -0 0 0
0 0 0 0 0 0 0 0 0 0 0 0 0 0 0 0 0 0 0 0 0 0 0 0 0 0 -0 0 0 0 0 0 0 0 0 0 0 0 0 0 0 0 0 0 0 0 0 0 0
0 0 0 0 0 0 0 -0 -0 0 0 0 0 0 0 0 0 0 0 0 0 0 0 -0 0 0 -0 0 0 0 0 0 0 0 0 0 0 -0 -0 -0 0 0 0 0 0 0 0 0 0
0 0 0 0 0 0 0 -0 -0 0 0 0 0 0 0 0 0 0 0 0 0 -0 -0 -0 -0 -0 -0 0 0 0 0 0 0 0 0 0 -0 -0 -0 0 0 0 0 0 0 0 0 0 0
0 0 0 0 0 0 -0 -0 -0 -0 -0 0 0 0 0 0 0 0 0 0 -0 -0 -0 -0 -0 -0 -0 -0 0 0 0 0 0 0 0 0 -0 -0 -0 0 0 0 0 0 0 0 0 0 0
0 0 0 0 0 0 0 -0 0 0 -0 0 0 0 0 0 0 0 0 -0 -0 -0 -0 -0 -0 -0 -0 -0 -0 -0 -0 0 0 0 0 0 0 0 0 0 0 0 0 0 0 0 0 -0 0
0 0 0 0 0 0 -0 -0 0 0 -0 0 0 0 0 0 0 -0 0 -0 -0 -0 -0 -0 -0 -0 -0 -0 -0 -0 -0 -0 0 0 0 0 0 0 0 0 0 0 0 0 0 0 0 -0 0
0 0 0 0 0 0 -0 0 0 0 -0 -0 0 0 0 0 0 0 -0 -0 -0 -0 -0 -0 -0 -0 -0 -0 -0 -0 -0 -0 -0 -0 0 0 0 0 0 0 0 0 0 0 0 0 -0 0 0
0 0 0 0 0 0 0 0 0 0 0 0 0 0 0 0 -0 -0 -0 -0 -0 -0 -0 -0 -0 -0 -0 -0 -0 -0 -0 -0 -0 -0 -0 -0 0 0 0 0 0 0 0 0 0 0 0 0 0
0 0 0 0 0 0 0 0 0 0 0 0 -0 0 0 0 0 -0 -0 -0 -0 -0 -0 -0 -0 -0 -0 -0 -0 -0 -0 -0 -0 -0 -0 -0 -0 -0 -0 -0 0 0 0 0 -0 -0 0 0 0
0 0 0 0 0 0 0 0 0 0 0 -0 -0 0 0 0 0 0 -0 -0 -0 -0 -0 -0 -0 -0 -0 -0 -0 -0 -0 -0 -0 -0 -0 -0 -0 -0 -0 -0 -0 -0 0 0 0 -0 -0 0 0
0 0 0 0 0 0 0 0 0 0 0 0 0 0 0 0 0 0 0 -0 0 0 0 -0 -0 -0 -0 -0 -0 -0 -0 -0 -0 -0 -0 -0 -0 -0 -0 -0 -0 0 0 0 -0 -0 -0 -0 0
0 0 0 0 0 0 0 0 0 0 0 0 0 0 0 0 0 0 0 0 0 0 0 0 0 -0 -0 -0 -0 -0 0 -0 -0 -0 -0 -0 -0 -0 -0 -0 0 0 0 0 -0 -0 -0 -0 0
0 0 0 0 0 0 0 0 0 0 0 0 0 0 0 0 0 0 0 0 0 0 0 0 0 0 0 0 -0 -0 0 0 0 0 0 0 0 0 0 0 0 0 0 0 0 0 0 0 0
Wind_Speed_500mb
11 8 3 5 12 12 7 10 4 8 4 3 9 14 18 30 18 20 11 13 15 33 39 64 62 55 57 51 65 65 68 65 58 59 56 53 51 50 49 44 46 43 43 45 45 44 44 43 45
13 10 3 7 13 15 10 3 9 2 5 11 11 16 18 20 12 15 10 11 19 32 37 51 60 48 43 55 65 67 68 62 63 59 56 54 54 52 50 47 49 47 41 46 43 47 46 47 46
13 12 12 8 9 13 7 6 3 1 9 15 8 9 14 7 7 3 6 15 22 33 34 43 43 38 23 47 65 65 64 64 65 61 60 56 55 53 48 50 49 42 42 46 46 47 47 46 44
11 8 9 16 13 6 10 2 5 13 5 7 12 18 6 9 3 3 9 11 17 33 33 32 42 49 48 59 63 64 66 69 67 64 58 55 51 49 44 49 44 40 43 45 46 47 49 48 43
12 9 14 21 16 7 10 12 14 12 5 6 8 14 11 5 7 8 12 14 19 34 37 33 55 53 47 57 64 65 68 68 67 66 60 54 49 44 47 46 42 43 47 46 48 48 47 44 44
16 9 15 21 21 10 8 2 7 12 12 11 13 20 11 5 2 12 18 18 22 30 46 44 55 49 51 53 68 66 70 67 68 66 59 53 46 41 47 46 49 48 47 48 47 47 47 46 45
22 13 23 22 14 14 9 1 13 15 17 21 11 15 5 5 10 17 15 17 23 29 41 41 51 56 50 50 51 52 60 65 70 65 54 53 40 52 55 56 54 50 47 49 49 48 47 47 46
18 10 17 21 20 21 8 6 11 18 18 3 11 12 11 9 8 19 22 16 16 26 36 40 46 57 58 57 54 52 53 63 69 67 61 45 59 60 62 61 55 56 53 50 51 48 48 48 46
15 15 21 25 26 20 7 9 4 12 20 15 17 18 9 16 16 17 15 15 19 19 35 40 47 56 65 60 56 58 58 64 67 65 59 63 62 63 55 58 58 58 55 54 50 49 48 48 46
26 21 29 13 20 17 14 10 15 13 18 25 25 22 20 14 9 12 12 15 17 20 24 31 32 37 39 56 66 64 62 66 70 66 72 69 66 59 54 61 59 59 55 54 48 46 45 44 43
28 33 24 19 24 18 22 22 9 20 25 22 22 22 18 11 11 14 12 15 17 20 22 27 37 49 49 46 84 70 76 81 74 71 71 65 60 67 63 65 61 60 54 52 47 46 36 33 32
27 36 37 26 21 26 26 23 23 28 35 12 10 14 18 17 14 15 14 16 16 19 21 25 24 32 29 27 52 57 61 82 85 87 72 70 66 70 68 62 60 56 49 47 44 35 32 33 31
38 32 29 34 33 30 33 36 37 41 33 21 17 17 19 18 17 16 16 16 21 22 22 24 30 35 35 48 41 51 53 53 68 71 68 71 72 73 71 56 52 51 45 44 39 33 36 36 34
9 31 38 38 34 34 32 42 14 46 13 23 21 21 19 21 19 17 15 16 22 23 25 30 33 37 45 62 43 59 59 67 77 70 66 69 74 74 69 63 51 50 47 43 38 37 35 35 30
29 30 31 34 41 36 29 41 39 40 10 19 24 23 22 22 22 19 16 19 21 27 22 26 27 37 49 47 66 63 59 68 72 75 73 71 66 66 66 65 55 46 44 43 39 37 34 33 30
24 24 27 15 20 16 19 24 12 7 15 18 24 24 26 25 24 20 17 15 18 25 23 24 36 52 67 60 49 68 78 79 76 74 79 77 74 62 60 65 56 48 50 46 41 40 39 32 29
26 28 25 25 25 12 24 23 12 8 11 14 24 29 29 26 26 24 20 17 19 20 23 27 28 43 49 61 59 67 67 80 73 70 78 81 63 64 65 59 49 60 56 45 45 43 35 34 31
35 32 28 28 14 22 26 29 30 11 15 15 23 31 33 33 32 27 24 22 21 24 32 37 31 35 55 49 55 62 66 87 85 73 75 79 72 71 72 61 64 63 52 51 50 45 35 33 32
30 28 31 20 3 16 29 29 30 31 16 19 23 32 37 38 32 30 28 25 24 25 33 38 36 39 48 55 56 69 75 86 89 86 77 84 75 79 74 59 67 64 59 53 47 42 38 35 31
38 33 33 24 11 19 26 34 30 31 24 26 23 31 36 37 39 39 34 30 28 29 34 38 40 44 38 52 48 54 71 76 87 97 96 87 78 81 81 76 70 65 61 44 44 45 36 35 36
42 40 34 31 12 25 28 37 39 33 31 27 23 25 33 43 46 46 43 38 33 34 34 36 48 52 59 50 46 57 70 68 73 86 100 96 75 80 81 75 72 67 56 51 49 38 37 33 31
43 37 34 35 19 21 4 19 20 16 31 29 30 29 30 41 45 48 47 45 42 37 36 38 47 53 59 58 61 59 64 75 74 82 82 93 81 83 78 76 70 65 57 58 43 40 44 36 35
40 30 22 33 32 29 32 18 25 12 24 25 26 31 30 37 46 52 54 50 44 42 40 42 47 48 57 59 57 61 49 72 73 77 82 95 90 78 79 79 75 68 64 58 49 54 54 44 40
7 16 16 15 18 23 33 25 17 20 19 13 13 17 16 29 39 44 47 47 46 44 44 46 45 50 54 57 58 58 59 66 72 84 85 85 99 100 91 83 76 69 72 63 56 54 51 58 55
33 22 12 16 14 16 13 22 26 8 19 24 21 21 10 20 36 46 54 58 56 57 54 51 50 52 56 57 57 60 60 63 69 65 77 90 83 101 108 99 85 84 87 72 70 66 59 67 57
43 39 13 18 18 14 13 15 20 11 7 9 10 14 11 11 28 45 56 61 62 62 62 60 58 57 60 60 60 59 59 60 57 64 76 90 87 89 115 110 97 104 90 86 80 75 75 62 58
31 39 32 31 10 10 15 11 14 17 17 18 19 12 15 14 22 42 51 61 62 67 68 67 62 60 62 62 61 63 64 66 66 64 67 79 84 89 96 96 96 91 88 87 76 79 81 71 70
25 20 14 20 20 30 19 23 13 12 11 16 10 16 17 12 10 32 45 56 61 61 61 65 63 64 62 64 64 66 70 75 73 72 76 83 82 77 76 91 95 91 83 75 73 77 73 68 70
28 24 20 14 24 20 18 14 12 20 19 14 1 16 10 21 11 21 35 47 56 58 61 64 66 66 69 71 68 68 70 73 79 86 87 87 84 84 89 95 91 83 84 82 75 76 74 72 73
26 36 35 21 25 16 22 21 2 15 23 16 22 30 15 18 20 8 26 38 49 57 61 67 67 69 71 73 74 74 73 74 80 89 92 94 102 91 91 87 85 87 92 94 84 80 77 79 72
Wind_Direction_500mb
164 147 150 240 237 248 168 162 334 250 225 327 302 272 306 310 290 308 326 278 213 192 187 188 190 198 195 203 194 188 186 183 181 175 171 167 162 159 160 156 156 157 150 151 154 156 156 149 145
171 180 220 258 257 234 137 165 220 296 305 298 285 256 266 289 280 284 316 259 198 193 191 194 199 200 200 198 193 186 182 183 179 176 175 169 167 162 160 159 159 155 155 156 162 155 151 146 148
168 171 248 252 255 267 278 164 212 269 272 250 264 260 302 273 274 276 287 210 183 191 199 206 201 201 200 194 188 185 185 182 181 180 176 171 168 165 161 166 166 164 157 157 153 148 147 145 148
162 203 222 245 227 222 260 180 274 275 183 221 279 277 236 249 269 212 251 223 221 208 210 216 206 225 224 218 194 192 186 182 184 180 178 172 170 171 164 172 168 168 165 156 149 148 146 147 144
181 231 244 242 230 251 255 272 276 268 290 261 271 305 297 306 244 257 247 244 236 221 208 209 238 207 211 195 195 188 186 186 186 183 178 175 169 168 168 168 161 160 155 153 149 150 144 140 136
198 262 240 241 205 222 234 244 286 264 258 249 260 284 289 238 251 276 267 249 242 224 216 225 219 217 195 197 192 197 191 189 188 184 180 172 169 177 170 162 155 152 152 153 147 143 142 141 136
247 233 261 275 241 232 206 312 261 309 284 265 251 270 282 195 267 266 271 253 250 217 212 216 211 207 205 197 199 198 198 189 189 180 179 171 197 180 173 163 160 158 158 148 143 144 141 135 134
233 256 253 243 224 231 154 278 302 290 301 237 228 264 273 198 262 266 262 249 235 214 208 214 214 197 196 198 207 210 197 188 184 184 180 170 178 180 172 168 167 169 159 147 140 137 135 134 133
209 241 247 244 232 223 187 286 339 285 263 240 239 262 251 268 281 272 254 217 217 216 215 220 217 217 214 219 210 200 195 193 189 178 174 172 182 174 170 165 165 160 154 148 142 140 137 135 133
220 232 248 269 244 231 278 281 306 270 250 253 249 243 252 267 238 241 228 213 220 220 206 207 211 221 231 251 212 203 200 190 187 177 171 170 171 168 163 162 161 159 155 149 146 142 139 134 134
218 241 247 234 239 262 278 279 252 273 277 285 268 243 210 213 214 239 218 209 209 211 215 213 217 234 245 265 208 217 199 174 171 171 166 170 170 169 164 159 163 162 159 154 151 147 138 147 146
248 237 254 249 247 255 262 283 261 266 275 285 233 210 201 190 205 228 216 216 220 229 221 224 224 230 220 154 150 182 167 173 168 165 167 178 176 170 164 161 163 163 161 160 158 152 159 152 154
238 249 246 253 251 253 270 263 276 270 268 250 229 209 198 186 198 216 228 214 224 219 229 232 231 222 205 176 176 191 186 182 169 167 172 176 175 172 165 158 165 165 168 167 164 167 158 153 149
251 248 253 252 253 252 257 267 266 270 272 218 213 214 203 191 194 209 221 222 231 220 225 225 234 229 205 200 198 190 194 197 179 171 182 183 178 174 173 170 164 166 175 172 170 169 165 158 159
257 258 252 245 253 255 264 263 242 271 224 221 218 212 204 195 195 216 226 216 222 222 219 227 228 229 216 207 194 190 176 169 172 172 182 178 183 177 179 176 174 171 173 170 171 171 169 163 162
237 242 256 251 235 214 211 267 216 166 191 213 215 212 208 204 205 216 229 214 203 214 209 222 214 219 207 206 204 197 180 177 172 175 185 179 176 175 188 185 178 176 177 174 172 175 177 169 167
221 249 225 249 207 207 215 270 160 191 219 209 203 211 211 209 210 213 221 210 201 199 193 195 208 210 213 206 206 192 188 186 182 183 182 172 180 180 193 189 181 183 179 176 178 182 178 172 171
233 234 246 246 173 225 218 249 277 232 242 226 204 206 210 212 215 209 210 209 203 198 193 201 210 213 207 213 206 195 187 187 188 185 185 178 183 190 198 191 189 183 181 182 182 184 177 180 178
275 258 250 248 325 247 242 250 268 262 240 237 216 209 211 212 210 205 206 212 212 202 192 194 204 210 209 194 190 192 188 193 192 189 186 183 184 198 204 193 192 189 187 186 189 190 185 187 185
235 249 249 256 207 249 266 262 254 265 252 262 240 216 215 206 200 202 204 206 209 208 192 191 190 191 188 194 195 204 200 204 201 194 190 189 199 203 203 201 196 195 194 192 203 202 202 202 206
234 239 246 253 242 261 270 268 250 244 244 246 240 232 215 209 203 201 200 203 204 210 197 191 191 194 194 197 189 196 201 205 205 199 196 192 207 206 205 202 203 200 199 205 209 212 223 228 231
241 229 250 259 250 258 170 280 264 240 261 241 245 219 215 211 207 205 200 201 200 206 199 190 195 197 199 204 205 204 203 201 201 202 206 200 207 208 208 206 205 204 209 216 219 225 239 237 236
248 253 235 245 245 256 253 258 254 240 252 249 235 224 219 211 207 204 202 202 199 197 202 190 190 192 203 198 202 212 207 215 209 205 208 202 207 206 207 209 210 212 216 226 226 223 236 239 238
196 213 215 229 235 238 240 237 265 245 245 260 264 250 224 209 206 206 204 199 199 196 200 195 192 196 202 205 208 212 213 212 209 214 212 214 210 203 207 210 210 215 223 228 225 227 232 232 246
225 206 202 213 211 241 208 210 245 243 261 286 281 263 257 208 201 200 200 199 199 196 199 196 194 194 196 197 204 209 211 209 215 216 214 208 210 204 204 207 213 218 222 233 234 233 235 242 247
209 205 207 214 233 245 162 229 222 226 276 274 281 245 227 256 216 202 204 203 201 200 200 199 197 196 196 196 198 198 201 208 208 211 207 212 212 208 205 210 222 227 227 234 236 236 243 242 248
208 225 247 265 243 266 226 227 262 223 237 248 252 222 261 287 235 207 203 205 204 203 204 203 198 198 199 199 197 199 198 199 202 206 207 210 213 214 218 224 220 222 224 230 232 241 244 247 254
216 186 190 218 237 237 234 233 248 177 243 261 254 261 266 299 284 210 206 208 205 207 207 206 203 203 204 204 203 203 203 204 204 204 210 209 214 212 217 218 218 221 224 228 238 243 246 246 250
208 212 232 237 230 245 259 253 157 252 262 281 58 346 314 324 319 218 210 210 208 203 206 211 208 208 210 209 208 209 209 208 208 210 209 212 212 215 215 218 219 222 227 233 239 242 245 248 253
225 225 234 238 221 237 253 255 188 305 321 316 291 312 309 330 344 268 208 202 204 206 205 210 211 212 215 217 215 216 216 214 215 216 217 218 220 221 224 223 225 229 232 235 237 241 247 248 247
Wind_Speed_850mb
11 8 3 5 12 12 7 10 4 8 4 3 9 14 18 30 18 20 11 13 15 33 39 64 62 55 57 51 65 65 68 65 58 59 56 53 51 50 49 44 46 43 43 45 45 44 44 43 45
13 10 3 7 13 15 10 3 9 2 5 11 11 16 18 20 12 15 10 11 19 32 37 51 60 48 43 55 65 67 68 62 63 59 56 54 54 52 50 47 49 47 41 46 43 47 46 47 46
13 12 12 8 9 13 7 6 3 1 9 15 8 9 14 7 7 3 6 15 22 33 34 43 43 38 23 47 65 65 64 64 65 61 60 56 55 53 48 50 49 42 42 46 46 47 47 46 44
11 8 9 16 13 6 10 2 5 13 5 7 12 18 6 9 3 3 9 11 17 33 33 32 42 49 48 59 63 64 66 69 67 64 58 55 51 49 44 49 44 40 43 45 46 47 49 48 43
12 9 14 21 16 7 10 12 14 12 5 6 8 14 11 5 7 8 12 14 19 34 37 33 55 53 47 57 64 65 68 68 67 66 60 54 49 44 47 46 42 43 47 46 48 48 47 44 44
16 9 15 21 21 10 8 2 7 12 12 11 13 20 11 5 2 12 18 18 22 30 46 44 55 49 51 53 68 66 70 67 68 66 59 53 46 41 47 46 49 48 47 48 47 47 47 46 45
22 13 23 22 14 14 9 1 13 15 17 21 11 15 5 5 10 17 15 17 23 29 41 41 51 56 50 50 51 52 60 65 70 65 54 53 40 52 55 56 54 50 47 49 49 48 47 47 46
18 10 17 21 20 21 8 6 11 18 18 3 11 12 11 9 8 19 22 16 16 26 36 40 46 57 58 57 54 52 53 63 69 67 61 45 59 60 62 61 55 56 53 50 51 48 48 48 46
15 15 21 25 26 20 7 9 4 12 20 15 17 18 9 16 16 17 15 15 19 19 35 40 47 56 65 60 56 58 58 64 67 65 59 63 62 63 55 58 58 58 55 54 50 49 48 48 46
26 21 29 13 20 17 14 10 15 13 18 25 25 22 20 14 9 12 12 15 17 20 24 31 32 37 39 56 66 64 62 66 70 66 72 69 66 59 54 61 59 59 55 54 48 46 45 44 43
28 33 24 19 24 18 22 22 9 20 25 22 22 22 18 11 11 14 12 15 17 20 22 27 37 49 49 46 84 70 76 81 74 71 71 65 60 67 63 65 61 60 54 52 47 46 36 33 32
27 36 37 26 21 26 26 23 23 28 35 12 10 14 18 17 14 15 14 16 16 19 21 25 24 32 29 27 52 57 61 82 85 87 72 70 66 70 68 62 60 56 49 47 44 35 32 33 31
38 32 29 34 33 30 33 36 37 41 33 21 17 17 19 18 17 16 16 16 21 22 22 24 30 35 35 48 41 51 53 53 68 71 68 71 72 73 71 56 52 51 45 44 39 33 36 36 34
9 31 38 38 34 34 32 42 14 46 13 23 21 21 19 21 19 17 15 16 22 23 25 30 33 37 45 62 43 59 59 67 77 70 66 69 74 74 69 63 51 50 47 43 38 37 35 35 30
29 30 31 34 41 36 29 41 39 40 10 19 24 23 22 22 22 19 16 19 21 27 22 26 27 37 49 47 66 63 59 68 72 75 73 71 66 66 66 65 55 46 44 43 39 37 34 33 30
24 24 27 15 20 16 19 24 12 7 15 18 24 24 26 25 24 20 17 15 18 25 23 24 36 52 67 60 49 68 78 79 76 74 79 77 74 62 60 65 56 48 50 46 41 40 39 32 29
26 28 25 25 25 12 24 23 12 8 11 14 24 29 29 26 26 24 20 17 19 20 23 27 28 43 49 61 59 67 67 80 73 70 78 81 63 64 65 59 49 60 56 45 45 43 35 34 31
35 32 28 28 14 22 26 29 30 11 15 15 23 31 33 33 32 27 24 22 21 24 32 37 31 35 55 49 55 62 66 87 85 73 75 79 72 71 72 61 64 63 52 51 50 45 35 33 32
30 28 31 20 3 16 29 29 30 31 16 19 23 32 37 38 32 30 28 25 24 25 33 38 36 39 48 55 56 69 75 86 89 86 77 84 75 79 74 59 67 64 59 53 47 42 38 35 31
38 33 33 24 11 19 26 34 30 31 24 26 23 31 36 37 39 39 34 30 28 29 34 38 40 44 38 52 48 54 71 76 87 97 96 87 78 81 81 76 70 65 61 44 44 45 36 35 36
42 40 34 31 12 25 28 37 39 33 31 27 23 25 33 43 46 46 43 38 33 34 34 36 48 52 59 50 46 57 70 68 73 86 100 96 75 80 81 75 72 67 56 51 49 38 37 33 31
43 37 34 35 19 21 4 19 20 16 31 29 30 29 30 41 45 48 47 45 42 37 36 38 47 53 59 58 61 59 64 75 74 82 82 93 81 83 78 76 70 65 57 58 43 40 44 36 35
40 30 22 33 32 29 32 18 25 12 24 25 26 31 30 37 46 52 54 50 44 42 40 42 47 48 57 59 57 61 49 72 73 77 82 95 90 78 79 79 75 68 64 58 49 54 54 44 40
7 16 16 15 18 23 33 25 17 20 19 13 13 17 16 29 39 44 47 47 46 44 44 46 45 50 54 57 58 58 59 66 72 84 85 85 99 100 91 83 76 69 72 63 56 54 51 58 55
33 22 12 16 14 16 13 22 26 8 19 24 21 21 10 20 36 46 54 58 56 57 54 51 50 52 56 57 57 60 60 63 69 65 77 90 83 101 108 99 85 84 87 72 70 66 59 67 57
43 39 13 18 18 14 13 15 20 11 7 9 10 14 11 11 28 45 56 61 62 62 62 60 58 57 60 60 60 59 59 60 57 64 76 90 87 89 115 110 97 104 90 86 80 75 75 62 58
31 39 32 31 10 10 15 11 14 17 17 18 19 12 15 14 22 42 51 61 62 67 68 67 62 60 62 62 61 63 64 66 66 64 67 79 84 89 96 96 96 91 88 87 76 79 81 71 70
25 20 14 20 20 30 19 23 13 12 11 16 10 16 17 12 10 32 45 56 61 61 61 65 63 64 62 64 64 66 70 75 73 72 76 83 82 77 76 91 95 91 83 75 73 77 73 68 70
28 24 20 14 24 20 18 14 12 20 19 14 1 16 10 21 11 21 35 47 56 58 61 64 66 66 69 71 68 68 70 73 79 86 87 87 84 84 89 95 91 83 84 82 75 76 74 72 73
26 36 35 21 25 16 22 21 2 15 23 16 22 30 15 18 20 8 26 38 49 57 61 67 67 69 71 73 74 74 73 74 80 89 92 94 102 91 91 87 85 87 92 94 84 80 77 79 72
Wind_Direction_850mb
164 147 150 240 237 248 168 162 334 250 225 327 302 272 306 310 290 308 326 278 213 192 187 188 190 198 195 203 194 188 186 183 181 175 171 167 162 159 160 156 156 157 150 151 154 156 156 149 145
171 180 220 258 257 234 137 165 220 296 305 298 285 256 266 289 280 284 316 259 198 193 191 194 199 200 200 198 193 186 182 183 179 176 175 169 167 162 160 159 159 155 155 156 162 155 151 146 148
168 171 248 252 255 267 278 164 212 269 272 250 264 260 302 273 274 276 287 210 183 191 199 206 201 201 200 194 188 185 185 182 181 180 176 171 168 165 161 166 166 164 157 157 153 148 147 145 148
162 203 222 245 227 222 260 180 274 275 183 221 279 277 236 249 269 212 251 223 221 208 210 216 206 225 224 218 194 192 186 182 184 180 178 172 170 171 164 172 168 168 165 156 149 148 146 147 144
181 231 244 242 230 251 255 272 276 268 290 261 271 305 297 306 244 257 247 244 236 221 208 209 238 207 211 195 195 188 186 186 186 183 178 175 169 168 168 168 161 160 155 153 149 150 144 140 136
198 262 240 241 205 222 234 244 286 264 258 249 260 284 289 238 251 276 267 249 242 224 216 225 219 217 195 197 192 197 191 189 188 184 180 172 169 177 170 162 155 152 152 153 147 143 142 141 136
247 233 261 275 241 232 206 312 261 309 284 265 251 270 282 195 267 266 271 253 250 217 212 216 211 207 205 197 199 198 198 189 189 180 179 171 197 180 173 163 160 158 158 148 143 144 141 135 134
233 256 253 243 224 231 154 278 302 290 301 237 228 264 273 198 262 266 262 249 235 214 208 214 214 197 196 198 207 210 197 188 184 184 180 170 178 180 172 168 167 169 159 147 140 137 135 134 133
209 241 247 244 232 223 187 286 339 285 263 240 239 262 251 268 281 272 254 217 217 216 215 220 217 217 214 219 210 200 195 193 189 178 174 172 182 174 170 165 165 160 154 148 142 140 137 135 133
220 232 248 269 244 231 278 281 306 270 250 253 249 243 252 267 238 241 228 213 220 220 206 207 211 221 231 251 212 203 200 190 187 177 171 170 171 168 163 162 161 159 155 149 146 142 139 134 134
218 241 247 234 239 262 278 279 252 273 277 285 268 243 210 213 214 239 218 209 209 211 215 213 217 234 245 265 208 217 199 174 171 171 166 170 170 169 164 159 163 162 159 154 151 147 138 147 146
248 237 254 249 247 255 262 283 261 266 275 285 233 210 201 190 205 228 216 216 220 229 221 224 224 230 220 154 150 182 167 173 168 165 167 178 176 170 164 161 163 163 161 160 158 152 159 152 154
238 249 246 253 251 253 270 263 276 270 268 250 229 209 198 186 198 216 228 214 224 219 229 232 231 222 205 176 176 191 186 182 169 167 172 176 175 172 165 158 165 165 168 167 164 167 158 153 149
251 248 253 252 253 252 257 267 266 270 272 218 213 214 203 191 194 209 221 222 231 220 225 225 234 229 205 200 198 190 194 197 179 171 182 183 178 174 173 170 164 166 175 172 170 169 165 158 159
257 258 252 245 253 255 264 263 242 271 224 221 218 212 204 195 195 216 226 216 222 222 219 227 228 229 216 207 194 190 176 169 172 172 182 178 183 177 179 176 174 171 173 170 171 171 169 163 162
237 242 256 251 235 214 211 267 216 166 191 213 215 212 208 204 205 216 229 214 203 214 209 222 214 219 207 206 204 197 180 177 172 175 185 179 176 175 188 185 178 176 177 174 172 175 177 169 167
221 249 225 249 207 207 215 270 160 191 219 209 203 211 211 209 210 213 221 210 201 199 193 195 208 210 213 206 206 192 188 186 182 183 182 172 180 180 193 189 181 183 179 176 178 182 178 172 171
233 234 246 246 173 225 218 249 277 232 242 226 204 206 210 212 215 209 210 209 203 198 193 201 210 213 207 213 206 195 187 187 188 185 185 178 183 190 198 191 189 183 181 182 182 184 177 180 178
275 258 250 248 325 247 242 250 268 262 240 237 216 209 211 212 210 205 206 212 212 202 192 194 204 210 209 194 190 192 188 193 192 189 186 183 184 198 204 193 192 189 187 186 189 190 185 187 185
235 249 249 256 207 249 266 262 254 265 252 262 240 216 215 206 200 202 204 206 209 208 192 191 190 191 188 194 195 204 200 204 201 194 190 189 199 203 203 201 196 195 194 192 203 202 202 202 206
234 239 246 253 242 261 270 268 250 244 244 246 240 232 215 209 203 201 200 203 204 210 197 191 191 194 194 197 189 196 201 205 205 199 196 192 207 206 205 202 203 200 199 205 209 212 223 228 231
241 229 250 259 250 258 170 280 264 240 261 241 245 219 215 211 207 205 200 201 200 206 199 190 195 197 199 204 205 204 203 201 201 202 206 200 207 208 208 206 205 204 209 216 219 225 239 237 236
248 253 235 245 245 256 253 258 254 240 252 249 235 224 219 211 207 204 202 202 199 197 202 190 190 192 203 198 202 212 207 215 209 205 208 202 207 206 207 209 210 212 216 226 226 223 236 239 238
196 213 215 229 235 238 240 237 265 245 245 260 264 250 224 209 206 206 204 199 199 196 200 195 192 196 202 205 208 212 213 212 209 214 212 214 210 203 207 210 210 215 223 228 225 227 232 232 246
225 206 202 213 211 241 208 210 245 243 261 286 281 263 257 208 201 200 200 199 199 196 199 196 194 194 196 197 204 209 211 209 215 216 214 208 210 204 204 207 213 218 222 233 234 233 235 242 247
209 205 207 214 233 245 162 229 222 226 276 274 281 245 227 256 216 202 204 203 201 200 200 199 197 196 196 196 198 198 201 208 208 211 207 212 212 208 205 210 222 227 227 234 236 236 243 242 248
208 225 247 265 243 266 226 227 262 223 237 248 252 222 261 287 235 207 203 205 204 203 204 203 198 198 199 199 197 199 198 199 202 206 207 210 213 214 218 224 220 222 224 230 232 241 244 247 254
216 186 190 218 237 237 234 233 248 177 243 261 254 261 266 299 284 210 206 208 205 207 207 206 203 203 204 204 203 203 203 204 204 204 210 209 214 212 217 218 218 221 224 228 238 243 246 246 250
208 212 232 237 230 245 259 253 157 252 262 281 58 346 314 324 319 218 210 210 208 203 206 211 208 208 210 209 208 209 209 208 208 210 209 212 212 215 215 218 219 222 227 233 239 242 245 248 253
225 225 234 238 221 237 253 255 188 305 321 316 291 312 309 330 344 268 208 202 204 206 205 210 211 212 215 217 215 216 216 214 215 216 217 218 220 221 224 223 225 229 232 235 237 241 247 248 247